This is the latest recevied weather packets stored in our database for station/object OM7ABC-17. If no packets are shown the sender has not sent any weather packets the latest 10 day(s).
| Time | Temp. | Humidity | Pressure | Rain* | Wind** | Luminosity | Snow |
|---|---|---|---|---|---|---|---|
| 1777779675 | 22.22° C | 28% | 998.7 hPa | - | - | - | - |
| 1777778775 | 22.22° C | 28% | 998.6 hPa | - | - | - | - |
| 1777777875 | 22.22° C | 28% | 998.5 hPa | - | - | - | - |
| 1777776975 | 22.78° C | 28% | 998.5 hPa | - | - | - | - |
| 1777776075 | 22.78° C | 28% | 998.4 hPa | - | - | - | - |
| 1777775175 | 22.78° C | 28% | 998.3 hPa | - | - | - | - |
| 1777774275 | 22.78° C | 28% | 998.3 hPa | - | - | - | - |
| 1777773374 | 22.78° C | 28% | 998.3 hPa | - | - | - | - |
| 1777767074 | 22.22° C | 29% | 997.9 hPa | - | - | - | - |
| 1777766174 | 22.22° C | 29% | 997.9 hPa | - | - | - | - |
| 1777765274 | 22.22° C | 28% | 998 hPa | - | - | - | - |
| 1777764374 | 22.22° C | 28% | 998 hPa | - | - | - | - |
| 1777760774 | 22.78° C | 28% | 997.8 hPa | - | - | - | - |
| 1777759874 | 22.78° C | 28% | 997.8 hPa | - | - | - | - |
| 1777757173 | 23.33° C | 28% | 997.5 hPa | - | - | - | - |
| 1777756273 | 23.89° C | 28% | 997.3 hPa | - | - | - | - |
| 1777754473 | 24.44° C | 27% | 997.2 hPa | - | - | - | - |
| 1777753573 | 24.44° C | 27% | 996.9 hPa | - | - | - | - |
| 1777752673 | 24.44° C | 27% | 996.7 hPa | - | - | - | - |
| 1777751773 | 25° C | 27% | 996.4 hPa | - | - | - | - |
| 1777749073 | 25.56° C | 27% | 996.1 hPa | - | - | - | - |
| 1777746373 | 25.56° C | 27% | 995.7 hPa | - | - | - | - |
| 1777745473 | 25.56° C | 27% | 995.6 hPa | - | - | - | - |
| 1777744573 | 25.56° C | 27% | 995.4 hPa | - | - | - | - |
| 1777740972 | 25° C | 26% | 995.2 hPa | - | - | - | - |
* Rain since midnight (hover to see other rain measurements)
** Current wind speed in m/s (hover to see current wind gust speed)